www.pogodaiklimat.ru

ПОГОДА в Айронвуде, MI

  • Прогноз погоды в Айронвуде
  • Монитор погоды в Айронвуде
  • Климат в Айронвуде

АРХИВ ПОГОДЫ в Айронвуде

Время (UTC), дата Ветер
(напр.,м/с)
 
Видим.   Явления Облачность Т
(С)
Тd
(С)
f
(%)
Тe
(С)
Тes
(С)
Комфортность

P
(гПа)

Po
(гПа)
Тmin
(С)
Tmax
(С)
R
(мм)
SD
(см)
04:40 19.06   14 км    2/2 60 м  +8.0  +7.0  93  +7  +7      969.2         
04:52 19.06   3 км  дымка  5/5 60 м  +7.0  +7.0  100  +6  +6      969.2         
04:56 19.06   2 км  дымка  8/8 60 м  +7.2  +6.7  97  +6  +6    1014.1  969.2  +6.7  +16.7     
05:05 19.06   3 км  дымка  8/8 60 м  +7.0  +7.0  100  +6  +6      969.2         
05:10 19.06   2 км  дымка  8/8 60 м  +7.0  +6.0  93  +6  +6      969.5         
05:15 19.06   800 м  туман  10/10 60 м  +7.0  +6.0  93  +6  +6      969.5         
05:37 19.06   400 м  туман  8/8 60 м  +6.0  +6.0  100  +5  +5      969.5         
05:56 19.06   400 м  туман  10/10 60 м  +6.1  +6.1  100  +5  +5    1014.2  969.5         
06:04 19.06   800 м  туман  10/10 60 м  +7.0  +6.0  93  +6  +6      969.2         
06:15 19.06   2 км  дымка  10/10 60 м  +6.0  +6.0  100  +5  +5      969.2         
06:22 19.06   800 м  туман  10/10 60 м  +6.0  +6.0  100  +5  +5      969.2         
06:35 19.06   2 км  дымка  10/10 60 м  +6.0  +6.0  100  +5  +5      969.2         
06:42 19.06   2 км  дымка  10/10 60 м  +6.0  +6.0  100  +5  +5      969.2         
06:45 19.06 В  1 км  дымка  10/10 60 м  +6.0  +6.0  100  +4  +4      968.8         
06:54 19.06   800 м  туман  10/10 60 м  +6.0  +6.0  100  +5  +5      968.8         
06:56 19.06   800 м  туман  10/10 60 м  +5.6  +5.6  100  +4  +4    1013.8  969.2         
07:19 19.06   400 м  туман  10/10 60 м  +6.0  +6.0  100  +5  +5      968.8         
07:27 19.06   1 км  дымка  10/10 60 м  +6.0  +5.0  93  +5  +5      968.8         
07:32 19.06   2 км  дымка  10/10 60 м  +6.0  +5.0  93  +5  +5      968.8         
07:44 19.06   1 км  дымка  8/8 60 м  +5.0  +4.0  93  +4  +4      968.8         
07:52 19.06   800 м  туман  ?/?  +6.0  +5.0  93  +5  +5      968.8         
07:56 19.06   800 м  туман  ?/?  +5.0  +5.0  100  +4  +4    1013.6  968.8         
07:59 19.06   2 км  дымка  ?/?  +5.0  +5.0  100  +4  +4      968.8         
08:02 19.06   4 км  дымка  5/5 60 м  +6.0  +5.0  93  +5  +5      968.8         
08:09 19.06   10 км  дымка  2/2 60 м  +5.0  +4.0  93  +4  +4      968.8         
08:19 19.06   3 км  дымка  ясно  +4.0  +4.0  100  +3  +3      968.8         
08:28 19.06   3 км  дымка  2/2 60 м  +4.0  +4.0  100  +3  +3      968.5         
08:36 19.06   11 км    2/2 60 м  +5.0  +4.0  93  +4  +4      968.5         
08:56 19.06 В  4 км  дымка  ясно  +4.4  +4.4  100  +2  +2    1013.4  968.5         
08:59 19.06 В  2 км  дымка  ясно  +5.0  +4.0  93  +3  +3      968.5         
09:06 19.06   1 км  дымка  ?/?  +5.0  +4.0  93  +4  +4      968.5         
09:08 19.06 В  2 км  дымка  2/2 60 м  +5.0  +4.0  93  +3  +3      968.8         
09:15 19.06 В  5 км  дымка  2/2 60 м  +5.0  +4.0  93  +3  +3      968.5         
09:53 19.06   2 км  дымка  ясно  +6.0  +6.0  100  +5  +5      968.8         
09:56 19.06   800 м  туман  ?/?  +5.6  +5.0  96  +4  +4    1013.6  968.8         
10:06 19.06   2 км  дымка  2/2 60 м  +6.0  +5.0  93  +5  +5      968.8         
10:08 19.06   10 км  дымка  2/2 60 м  +6.0  +5.0  93  +5  +5      968.8         
10:56 19.06   16 км    5/0 3000 м
[средняя] 
+8.3  +7.2  93  +7  +8    1013.3  968.8  +4.4  +8.3     
11:56 19.06 В  16 км    ясно  +12.2  +9.4  83  +11  +12    1013.4  968.8         
12:56 19.06 В  16 км    ясно  +15.0  +10.0  72  +14  +17    1013.4  968.8         
13:56 19.06 В  16 км    ясно  +17.2  +10.6  65  +17  +21    1013.0  968.5         
14:56 19.06 СВ  16 км    2/2 1110 м  +18.3  +9.4  56  +19  +27    1012.6  968.2         
15:56 19.06 С  4
{7} 
16 км    ясно  +19.4  +10.6  57  +20  +28    1012.1  967.5         
16:56 19.06 СВ  16 км    ясно  +19.4  +10.6  57  +20  +29    1011.9  967.2  +8.3  +19.4     
17:56 19.06 нст  16 км    ясно  +20.6  +8.3  45  +22  +36  комфорт  1011.4  966.9         
18:56 19.06 С  6
{7} 
16 км    ясно  +21.1  +6.7  39  +22  +27  комфорт  1010.8  966.2         
19:56 19.06 СВ  16 км    ясно  +21.1  +8.3  44  +22  +28  комфорт  1010.4  965.9         
20:56 19.06 С  16 км    ясно  +18.9  +8.3  50  +19  +22    1010.5  965.9         

 

Местоположение метеостанции Gogebic-Iron County Airport: широта 46.5333 долгота -90.1333 высота над уровнем моря 375 м.

В архиве по умолчанию представлена погода в Айронвуде за последние 1-2 суток. Обновление информации о фактической погоде в базе происходит ежечасно! Архивные данные за месяц целиком и за предыдущие месяцы Вы можете получить, выбрав интересующий диапазон дат из раскрывающегося списка и нажав кнопку "Ввод!".

Внимание! Архив погоды МЕТАР в базе сайта хранится не более 60 дней. Нет смысла пытаться выбрать более раннюю дату.

Внимание! Время в таблицах - всемирное. Для получения местного времени необходимо прибавить поправку, которая в Айронвуде равна -6 ч.

Ветер - указаны скорость ветра в м/с и направление, откуда дует ветер: С - северный, СВ - северо-восточный, В - восточный, ЮВ - юго-восточный, Ю - южный, ЮЗ - юго-западный, З - западный, СЗ - северо-западный.
Видимость - горизонтальная дальность видимости в метрах или километрах. При видимости от 1 до 10 км при отсутствии осадков обычно наблюдается дымка, при ухудшении видимости до 1 км и менее - туман. В сухую погоду видимость может ухудшаться дымом, пылью или мглою.
Атмосферные явления - указаны явления, наблюдавшиеся в указанный момент времени.
Облачность - указаны через наклонную черту верхняя и нижняя облачность в баллах и высота нижней границы облаков в метрах. Внимание: облачность, как и прочие метеорологические величины в США измеряются автоматическими метеостанциями. Указанные значения в баллах носят условный характер и показывают процент времени, в течение которого, в среднем, лазерный луч высотомера отражался от облаков обратно.
T - Температура воздуха - температура, измеренная на высоте 2 м над землей.
Td - Температура точки росы - температура, при понижении до которой содержащийся в воздухе водяной пар достигнет насыщения.
f - Относительная влажность воздуха - влажноcть воздуха, измеренная на высоте 2 м над землей.
Te - Эффективная температура - температура, которую ощущает одетый по сезону человек в тени. Характеристика душности погоды. При расчете учитывается влияние влажности воздуха и скорости ветра на теплоощущения человека.
Tes - Эффективная температура на солнце - температура, которую ощущает человек, с поправкой на солнечный нагрев. Характеристика знойности погоды. Зависит от высоты солнца над горизонтом, облачности и скорости ветра. Ночью, в пасмурную погоду, а также при ветре 12 м/с и более поправка равна нулю.
P - Атмосферное давление - приведенное к уровню моря атмосферное давление.
Po - Атмосферное давление - измеренное на уровне метеостанции атмосферное давление.
Tmin - Минимальная температура - минимум температуры воздуха на высоте 2 м над землей.
Tmax - Максимальная температура - максимум температуры воздуха на высоте 2 м над землей.
R - Количество осадков - Количество выпавших осадков за 3 или 6 часов, мм.
SD - Снежный покров - Высота снежного покрова, см.